Date,TemperatureHighF,TemperatureAvgF,TemperatureLowF,DewpointHighF,DewpointAvgF,DewpointLowF,HumidityHigh,HumidityAvg,HumidityLow,PressureMaxIn,PressureMinIn,WindSpeedMaxMPH,WindSpeedAvgMPH,GustSpeedMaxMPH,PrecipitationSumIn
2013-1-1,28.1,20.4,7.7,23.0,13.4,3.7,88,74,54,30.12,29.98,9,0,10,0.02
2013-1-2,25.6,16.7,4.6,20.2,12.9,1.8,100,85,75,30.19,30.05,12,0,12,0.00
2013-1-3,28.5,21.1,10.1,25.6,17.0,6.2,90,84,77,30.15,30.03,12,1,14,0.00
2013-1-4,30.7,26.0,22.0,24.8,20.6,17.5,89,80,67,30.16,29.99,19,2,19,0.01
2013-1-5,31.4,23.5,10.6,30.1,20.4,8.5,95,88,76,30.27,30.00,13,1,15,0.02
2013-1-6,34.4,32.6,31.0,32.8,30.0,26.7,96,90,83,30.23,29.88,12,1,12,0.05
2013-1-7,35.4,30.0,25.9,27.3,25.0,21.7,92,82,71,30.35,30.12,17,2,18,0.01
2013-1-8,35.5,24.2,16.6,28.7,21.1,14.9,95,88,76,30.23,30.13,6,0,10,0.00
2013-1-9,46.7,34.4,16.3,35.1,26.9,14.5,97,76,48,30.41,30.01,17,1,20,0.00
2013-1-10,28.4,26.0,23.9,24.6,23.2,21.7,92,89,85,30.50,30.41,0,0,0,0.00
2013-1-11,55.4,44.9,35.5,52.4,43.5,34.7,99,95,85,29.88,29.72,12,1,12,0.62
2013-1-12,59.1,47.8,40.7,52.2,45.9,40.1,99,94,77,29.89,29.79,12,1,12,0.00
2013-1-13,48.6,38.1,30.1,48.3,37.1,28.2,99,96,93,30.00,29.65,16,0,16,0.77
2013-1-14,30.0,23.8,15.2,28.1,19.1,13.1,93,82,70,30.41,30.00,15,1,16,0.00
2013-1-15,29.6,20.5,11.3,22.8,16.3,9.2,95,84,68,30.42,30.13,5,0,5,0.00
2013-1-16,39.1,28.2,17.7,28.2,20.4,16.0,95,75,45,30.13,29.78,16,2,19,0.00
2013-1-17,37.9,30.0,17.9,29.3,21.6,6.6,88,71,55,30.28,29.92,21,1,21,0.00
2013-1-18,33.0,24.0,12.7,24.4,16.4,8.5,90,73,60,30.41,29.96,24,2,24,0.00
2013-1-19,47.7,40.1,32.5,35.7,30.7,24.2,79,69,58,29.96,29.53,18,4,20,0.00
2013-1-20,43.0,30.0,28.0,35.3,18.8,17.0,75,63,48,29.70,29.51,13,2,28,0.00
2013-1-21,28.0,28.0,28.0,17.0,17.0,17.0,63,63,63,29.70,29.70,2,2,2,0.00
2013-1-22,28.0,28.0,28.0,17.0,17.0,17.0,63,63,63,29.70,29.70,2,2,2,0.00
2013-1-23,28.0,28.0,28.0,17.0,17.0,17.0,63,63,63,29.70,29.70,2,2,2,0.00
2013-1-24,28.0,20.7,6.8,17.0,10.0,0.4,80,64,43,30.57,29.70,7,1,23,0.01
2013-1-25,20.5,16.6,11.7,16.0,12.4,5.9,92,83,73,30.49,30.00,12,0,12,0.00
2013-1-26,26.8,19.7,12.9,19.4,14.7,9.4,100,82,59,30.44,30.03,10,0,10,0.00
2013-1-27,28.8,19.3,7.1,27.4,15.1,4.4,100,84,65,30.47,30.09,10,0,10,0.00
2013-1-28,42.2,35.5,28.8,41.9,34.8,27.3,99,97,94,30.13,29.82,11,0,11,0.07
2013-1-29,55.2,43.8,33.2,55.2,43.6,32.7,100,99,98,29.98,29.42,14,1,14,0.73
2013-1-30,61.1,48.7,32.4,58.9,47.6,30.3,100,96,90,29.43,29.06,19,2,20,0.55
2013-1-31,32.3,22.1,15.2,30.2,16.7,11.3,92,79,67,29.85,29.17,12,2,24,0.00
2013-2-1,19.7,13.3,7.3,12.5,8.0,2.0,89,79,64,30.26,29.85,16,1,17,0.00
2013-2-2,22.7,15.8,8.4,19.7,12.0,4.5,90,85,79,30.21,29.93,11,1,12,0.00
2013-2-3,21.6,12.0,-2.2,17.6,7.4,-5.2,100,82,70,30.00,29.83,17,1,17,0.00
2013-2-4,22.9,18.6,15.3,20.3,15.4,8.9,92,87,75,30.01,29.85,5,0,5,0.00
2013-2-5,27.0,21.3,12.6,25.7,18.2,10.4,95,88,70,29.92,29.79,11,1,12,0.01
2013-2-6,32.0,21.2,6.4,24.6,15.4,3.9,96,79,56,30.28,29.92,10,0,11,0.10
2013-2-7,38.6,29.5,21.9,29.4,23.8,18.6,92,79,69,30.27,29.82,13,1,13,0.02
2013-2-8,29.0,25.4,11.7,27.4,21.9,9.1,96,87,75,30.32,29.73,20,1,20,0.05
2013-2-9,32.0,18.5,4.7,21.3,13.5,2.2,96,82,59,30.42,30.27,10,0,11,0.17
2013-2-10,38.0,26.8,11.5,34.2,23.1,9.4,96,86,67,30.28,29.67,9,0,9,0.16
2013-2-11,44.1,36.5,31.1,43.3,31.6,25.7,98,83,72,29.82,29.52,30,3,30,0.00
2013-2-12,32.4,30.3,27.6,26.7,24.6,21.8,85,79,74,30.02,29.82,14,1,15,0.00
2013-2-13,39.8,29.4,25.6,28.1,23.8,21.2,93,80,59,29.90,29.70,11,0,11,0.00
2013-2-14,38.6,32.4,23.4,35.2,28.5,21.8,95,86,78,29.81,29.66,22,1,22,0.01
2013-2-15,33.9,27.7,21.5,29.2,18.9,14.0,85,70,55,30.09,29.80,14,1,15,0.00
2013-2-16,26.0,19.1,13.2,20.0,14.3,9.6,91,82,60,30.08,29.95,11,0,12,0.01
2013-2-17,24.5,15.2,7.2,13.9,8.2,3.6,91,75,51,30.20,30.03,13,0,13,0.00
2013-2-18,46.4,28.9,9.0,37.5,21.8,5.9,91,76,56,30.20,29.58,8,0,15,0.01
2013-2-19,43.4,28.2,16.8,40.6,24.3,10.8,95,85,70,29.90,29.38,21,3,23,0.18
2013-2-20,21.9,19.0,14.6,16.1,12.0,8.0,82,74,65,30.21,29.89,19,2,19,0.00
2013-2-21,26.0,21.3,19.7,17.9,15.1,13.5,86,77,65,30.37,30.21,12,1,13,0.00
2013-2-22,32.6,26.6,21.5,31.8,24.7,18.0,97,92,83,30.25,29.86,15,1,15,0.00
2013-2-23,33.2,29.6,24.0,31.2,23.3,18.6,97,77,64,29.89,29.83,13,1,15,0.12
2013-2-24,35.9,27.4,20.6,26.8,22.3,17.4,92,81,66,30.12,29.86,13,1,15,0.04
2013-2-25,41.2,27.9,14.9,30.5,21.5,13.2,98,79,56,30.20,30.07,12,0,12,0.00
2013-2-26,34.7,30.4,23.8,31.6,26.9,20.7,98,87,71,30.10,29.47,22,2,22,0.36
2013-2-27,34.4,32.8,32.0,33.9,32.2,31.4,98,98,96,29.54,29.40,8,0,8,0.37
2013-2-28,37.7,32.9,29.4,34.9,30.7,25.2,98,92,83,29.92,29.50,13,1,16,0.50
2013-3-1,29.4,26.3,24.1,26.8,21.9,19.4,92,83,78,30.08,29.91,11,1,12,0.01
2013-3-2,26.6,24.3,22.6,21.0,19.8,18.2,87,83,76,30.06,30.01,6,0,10,0.00
2013-3-3,31.1,22.5,13.5,18.3,15.9,10.9,89,76,55,30.03,29.96,15,1,17,0.09
2013-3-4,35.9,22.9,10.8,21.3,15.7,8.5,100,76,46,30.14,30.03,11,0,11,0.02
2013-3-5,36.2,27.1,16.9,26.4,21.4,14.4,93,80,63,30.11,29.80,15,1,15,0.00
2013-3-6,40.1,32.6,25.4,30.9,27.2,22.3,93,81,66,30.18,29.81,12,0,12,0.00
2013-3-7,37.1,31.9,22.9,31.5,26.9,19.6,92,82,66,30.36,30.16,12,0,12,0.00
2013-3-8,44.3,30.5,19.7,30.9,23.7,17.3,92,77,53,30.46,30.36,7,0,7,0.00
2013-3-9,42.9,33.3,20.7,32.7,28.0,19.2,97,82,62,30.39,30.01,12,0,12,0.00
2013-3-10,62.7,46.3,30.6,48.4,38.5,28.8,96,76,54,30.01,29.75,17,1,17,0.00
2013-3-11,54.4,47.8,36.6,48.7,44.0,32.7,97,87,73,29.77,29.41,19,2,19,0.42
2013-3-12,36.6,33.6,27.2,33.1,29.8,24.4,90,86,77,29.88,29.63,16,2,17,0.02
2013-3-13,32.1,28.4,25.1,27.8,22.0,15.1,94,78,59,30.16,29.81,18,2,18,0.04
2013-3-14,25.9,24.4,22.7,15.7,15.2,14.5,74,68,64,30.18,30.15,10,0,11,0.00
2013-3-16,32.2,29.5,24.7,27.9,25.2,21.0,92,84,78,30.01,29.82,10,0,10,0.10
2013-3-17,33.1,26.1,16.9,24.6,17.8,13.1,92,71,54,30.24,30.00,15,1,15,0.03
2013-3-18,34.4,29.4,21.3,33.8,26.6,15.1,100,89,76,30.17,29.52,16,2,17,0.09
2013-3-19,33.7,26.6,22.7,31.9,20.7,16.7,93,78,71,29.90,29.57,22,3,22,0.01
2013-3-20,29.6,24.3,16.4,20.8,16.3,10.1,84,71,60,29.92,29.86,19,2,19,0.00
2013-3-21,32.1,23.5,14.5,24.7,18.6,10.7,90,82,68,29.91,29.83,13,1,16,0.00
2013-3-22,40.1,30.2,25.4,25.0,21.5,18.0,85,71,52,30.00,29.90,15,1,15,0.00
2013-3-23,38.6,28.9,19.7,27.1,22.9,17.5,96,79,60,30.07,29.97,9,0,9,0.00
2013-3-24,36.2,29.1,21.0,28.9,23.6,19.1,95,81,57,30.02,29.60,19,2,19,0.00
2013-3-25,40.6,34.1,29.8,29.3,26.8,24.1,92,75,62,29.87,29.52,16,2,16,0.00
2013-3-26,44.4,36.4,32.2,33.7,29.5,27.3,87,76,60,30.07,29.86,12,1,14,0.01
2013-3-27,47.9,37.5,27.8,32.0,28.1,25.0,90,70,46,30.16,30.07,18,2,18,0.00
2013-3-28,53.4,39.8,28.7,31.0,27.4,23.2,85,63,39,30.22,30.16,13,1,14,0.00
2013-3-29,52.4,39.1,27.9,28.4,24.4,22.2,81,58,32,30.24,30.14,10,0,10,0.00
2013-3-30,55.6,40.0,23.5,30.6,25.4,20.2,92,61,27,30.18,29.89,16,1,16,0.00
2013-3-31,59.9,43.5,29.8,44.8,34.9,26.6,99,75,40,29.89,29.57,15,1,17,0.06
2013-4-1,41.0,32.6,25.0,34.7,20.1,14.3,83,61,40,30.06,29.63,18,2,21,0.00
2013-4-2,41.6,30.0,20.5,20.7,16.6,14.7,87,60,37,30.22,30.05,15,1,16,0.00
2013-4-3,42.1,31.0,21.2,19.7,16.2,13.2,81,56,33,30.40,30.21,16,1,19,0.00
2013-4-4,55.8,36.6,20.0,25.1,19.8,15.1,92,56,25,30.34,29.91,14,1,15,0.00
2013-4-5,48.9,40.7,28.9,31.0,24.4,18.5,83,54,33,30.17,29.89,12,1,13,0.00
2013-4-6,50.5,38.1,24.9,31.3,24.4,15.9,88,59,38,30.22,29.75,14,1,15,0.00
2013-4-7,57.3,50.7,36.7,46.9,38.4,29.0,85,63,44,29.97,29.57,18,2,18,0.00
2013-4-8,64.3,43.8,29.4,58.0,40.0,27.4,97,87,66,29.99,29.65,19,1,19,0.17
2013-4-9,54.2,46.2,41.7,47.5,43.2,40.0,95,89,75,30.04,29.83,9,0,15,0.01
2013-4-10,47.6,42.0,38.6,46.0,40.9,37.6,98,96,92,29.94,29.86,7,1,10,0.55
2013-4-11,38.5,37.0,35.8,37.9,36.1,34.5,98,97,94,29.93,29.58,17,2,23,1.21
2013-4-12,43.5,38.2,35.0,40.9,36.2,33.8,99,93,79,29.73,29.47,18,1,18,0.35
2013-4-13,42.2,38.1,34.5,37.9,32.6,28.5,92,81,62,29.95,29.73,17,2,18,0.04
2013-4-14,47.2,38.0,29.3,39.0,33.0,27.0,93,83,69,30.09,29.90,14,1,14,0.04
2013-4-15,68.5,52.9,33.3,55.5,46.0,31.7,97,79,59,29.94,29.82,16,1,18,0.03
2013-4-16,61.6,53.7,44.3,55.0,45.9,37.9,97,77,49,30.17,29.80,12,1,12,0.26
2013-4-17,56.6,46.8,39.3,45.7,37.4,31.5,96,71,48,30.28,29.99,15,2,15,0.76
2013-4-18,78.0,57.2,42.6,67.7,54.7,41.5,99,92,66,30.00,29.51,27,2,27,0.31
2013-4-19,57.4,45.0,36.6,56.9,40.8,29.9,99,86,69,29.70,29.26,26,3,26,0.01
2013-4-20,40.4,34.5,27.2,32.1,24.7,18.6,92,68,52,30.40,29.70,17,2,20,0.01
2013-4-21,47.6,35.6,22.4,33.0,25.5,20.8,97,69,44,30.59,30.40,14,1,14,0.08
2013-4-22,60.7,44.6,27.7,38.5,30.5,23.2,97,63,26,30.44,30.15,12,0,12,0.33
2013-4-23,70.4,52.6,34.8,54.5,43.1,32.5,100,74,42,30.15,29.74,17,1,26,0.14
2013-4-24,54.6,40.2,33.3,54.0,38.5,29.5,98,94,82,30.09,29.66,15,1,15,0.02
2013-4-25,51.4,38.6,27.6,42.8,32.6,26.5,98,80,49,30.30,30.07,18,2,18,0.05
2013-4-26,58.7,43.6,27.8,40.6,33.9,26.3,98,71,45,30.42,30.30,9,1,13,0.07
2013-4-27,68.5,50.9,32.3,44.0,37.7,31.1,99,66,29,30.33,30.06,16,1,16,0.00
2013-4-28,54.2,51.0,42.9,53.4,46.9,36.5,99,87,65,30.06,29.78,9,0,9,0.01
2013-4-29,68.7,58.2,50.6,56.7,53.8,50.3,100,87,62,29.88,29.77,8,0,9,0.04
2013-4-30,71.2,58.7,45.9,59.5,53.8,45.0,100,85,63,30.02,29.87,17,1,17,0.01
2013-5-1,80.5,63.7,45.6,62.0,54.0,45.0,100,74,45,30.17,30.00,13,0,13,0.00
2013-5-2,78.2,64.1,49.3,61.4,51.9,46.2,96,68,40,30.19,30.07,11,0,11,0.00
2013-5-3,76.4,64.5,53.2,60.1,48.0,37.0,80,58,27,30.07,29.99,15,1,15,0.00
2013-5-4,70.8,60.7,49.6,49.7,44.7,36.0,91,59,34,30.07,29.99,13,1,13,0.00
2013-5-5,71.8,59.5,47.4,46.9,42.5,36.3,88,57,30,30.05,29.95,14,1,14,0.00
2013-5-6,73.8,59.7,44.5,54.3,45.7,39.9,87,62,42,30.00,29.91,10,0,11,0.00
2013-5-7,74.8,61.4,47.7,56.5,50.2,41.9,90,69,45,30.00,29.92,17,1,17,0.00
2013-5-8,79.8,62.4,50.8,65.1,53.3,47.9,96,75,39,29.96,29.86,10,0,10,0.00
2013-5-9,79.5,64.3,47.7,60.7,53.3,46.8,100,72,40,29.91,29.82,7,0,7,0.00
2013-5-10,70.5,58.4,42.6,63.6,54.3,39.3,99,87,73,29.85,29.68,13,1,15,0.00
2013-5-11,61.2,47.1,36.8,48.8,42.1,32.9,94,83,59,29.85,29.68,19,1,19,0.00
2013-5-12,49.0,40.1,30.5,34.1,31.2,26.1,93,72,51,30.05,29.82,18,2,18,0.00
2013-5-13,53.8,40.5,27.5,33.5,27.9,24.9,100,65,35,30.13,30.04,12,1,12,0.00
2013-5-14,76.5,56.1,37.5,60.0,43.6,32.2,85,65,43,30.07,29.67,12,0,12,0.00
2013-5-15,82.4,68.0,50.3,62.6,52.6,47.5,99,62,36,29.72,29.53,14,1,18,0.00
2013-5-16,81.8,66.3,47.5,55.5,48.4,39.6,92,57,31,29.96,29.71,13,0,14,0.00
2013-5-17,72.6,60.5,47.8,50.3,44.5,39.5,78,57,38,30.09,29.96,12,0,12,0.00
2013-5-18,79.2,65.0,53.5,55.2,48.3,44.2,80,57,33,30.09,29.96,11,0,12,0.00
2013-5-19,84.7,67.7,51.1,67.3,58.1,47.3,91,73,51,29.99,29.82,10,0,10,0.00
2013-5-20,89.2,72.7,58.1,73.4,64.8,57.2,99,79,49,29.86,29.69,13,0,14,0.00
2013-5-21,84.1,73.4,63.6,70.6,65.0,61.6,98,77,50,29.75,29.63,11,0,11,0.06
2013-5-22,79.8,67.3,60.4,67.6,63.6,59.4,99,89,58,29.68,29.55,15,1,19,0.06
2013-5-23,64.3,53.2,42.3,61.2,51.7,39.6,100,95,84,30.09,29.62,14,0,14,0.07
2013-5-24,54.4,45.2,38.5,41.3,37.5,33.3,97,76,55,30.31,30.09,13,1,13,0.02
2013-5-25,64.1,49.4,32.6,44.2,38.1,31.6,99,69,40,30.36,30.23,14,0,14,0.01
2013-5-26,69.3,53.5,35.2,45.6,38.7,34.2,98,63,33,30.29,30.17,9,0,9,0.01
2013-5-27,60.0,49.7,40.9,50.1,44.0,37.0,98,82,47,30.22,29.96,10,0,10,0.18
2013-5-28,76.2,61.6,50.5,72.5,60.4,50.0,100,96,84,29.96,29.74,12,0,14,0.15
2013-5-29,83.7,72.9,61.8,70.5,66.4,60.3,98,81,54,29.92,29.71,14,0,14,0.03
2013-5-30,85.3,70.7,59.5,77.8,66.9,58.9,100,89,62,29.99,29.89,12,0,13,0.02
2013-5-31,81.0,70.4,61.9,72.1,67.3,61.6,100,91,72,29.93,29.79,19,1,19,0.02
2013-6-1,79.5,69.8,63.1,70.1,65.6,61.9,99,88,67,29.79,29.61,15,1,15,0.01
2013-6-2,71.3,64.2,53.3,65.0,58.5,45.5,99,82,67,29.91,29.58,14,1,16,0.01
2013-6-3,66.4,54.9,40.9,47.6,43.4,38.7,95,68,42,30.03,29.91,10,0,11,0.00
2013-6-4,72.6,58.5,45.0,52.0,46.2,38.7,97,67,42,30.14,30.03,7,0,7,0.00
2013-6-5,72.9,60.0,47.5,52.4,45.1,38.0,81,60,39,30.12,29.92,10,0,10,0.01
2013-6-6,68.0,59.9,54.7,58.1,50.2,43.6,80,70,62,29.93,29.79,11,0,13,0.00
2013-6-7,60.5,55.7,48.5,54.8,51.8,47.2,97,87,78,29.86,29.80,7,0,7,0.00
2013-6-8,71.2,61.8,55.0,58.3,54.4,52.0,92,78,56,30.01,29.85,8,0,8,0.01
2013-6-9,75.1,65.6,54.0,61.8,57.0,52.6,97,76,55,30.05,29.89,13,0,13,0.00
2013-6-10,70.5,64.8,59.5,68.6,63.5,55.6,100,96,69,29.89,29.66,4,0,6,0.04
2013-6-11,80.9,70.1,63.2,70.4,65.9,62.9,100,88,63,29.82,29.69,11,0,11,0.00
2013-6-12,76.0,68.3,60.9,70.8,65.9,60.1,99,92,82,29.86,29.56,6,0,7,0.00
2013-6-13,76.3,67.5,59.7,65.3,61.1,57.3,99,82,54,29.85,29.45,13,1,13,0.00
2013-6-14,75.6,65.4,56.5,61.6,56.7,53.7,95,75,50,30.00,29.85,10,0,10,0.00
2013-6-15,78.8,65.6,53.0,67.2,59.6,52.3,100,83,57,30.02,29.86,7,0,7,0.00
2013-6-16,81.4,69.4,59.9,69.8,63.2,56.0,99,82,48,29.86,29.70,13,0,13,0.00
2013-6-17,85.8,71.1,56.9,66.8,60.6,54.5,95,72,41,29.85,29.75,8,0,10,0.00
2013-6-18,72.5,63.4,52.8,60.8,54.5,44.7,98,75,50,30.01,29.80,10,0,10,0.00
2013-6-19,74.2,60.9,48.0,57.6,50.0,42.2,91,69,44,30.11,30.00,7,0,7,0.00
2013-6-20,81.0,65.5,49.5,62.7,55.0,48.7,99,72,41,30.16,30.08,8,0,10,0.00
2013-6-21,85.3,70.3,54.6,69.6,62.0,53.2,98,77,49,30.15,29.98,6,0,14,0.00
2013-6-22,87.0,71.5,62.3,76.9,67.9,60.5,98,89,69,30.03,29.91,7,0,7,0.00
2013-6-23,88.0,76.6,64.9,74.5,69.6,64.6,100,81,57,30.00,29.89,11,0,11,0.00
2013-6-24,87.2,75.6,63.5,75.3,69.5,62.4,99,82,61,29.99,29.84,10,0,13,0.00
2013-6-25,84.5,73.7,66.7,76.8,69.5,63.9,98,87,71,29.92,29.73,15,0,15,0.00
2013-6-26,82.3,72.9,64.9,73.9,69.1,64.4,99,88,72,29.82,29.67,7,0,7,0.00
2013-6-27,82.5,71.2,64.1,73.6,68.8,63.7,100,93,67,29.69,29.55,7,0,7,0.00
2013-6-28,77.4,66.9,62.6,69.6,64.7,61.2,100,93,69,29.56,29.44,11,0,11,0.00
2013-6-29,63.4,63.0,62.5,63.1,62.5,61.8,99,98,97,29.50,29.47,0,0,0,0.00
2013-7-1,66.2,61.9,58.3,62.1,60.0,57.1,97,94,79,30.00,29.93,5,0,5,0.00
2013-7-2,60.5,58.8,57.9,59.3,57.8,56.6,98,96,95,29.99,29.94,4,0,5,0.00
2013-7-10,85.8,75.9,65.4,79.3,71.2,59.4,100,86,66,29.86,29.68,13,0,13,0.00
2013-7-11,78.2,67.8,58.0,63.9,58.8,56.2,96,75,51,30.00,29.86,10,0,11,0.00
2013-7-12,81.0,67.4,53.9,66.2,59.9,53.1,100,79,49,30.09,29.99,7,0,9,0.00
2013-7-13,83.5,71.0,59.0,68.2,63.0,57.9,100,78,49,30.16,30.07,7,0,7,0.00
2013-7-14,89.0,75.7,62.9,76.1,69.1,62.0,99,82,56,30.18,30.13,7,0,7,0.00
2013-7-15,91.0,77.9,68.2,80.0,73.6,67.6,100,88,64,30.22,30.14,6,0,6,0.00
2013-7-16,88.4,80.2,73.6,81.2,77.1,73.2,100,91,72,30.23,30.15,9,0,9,0.00
2013-7-17,91.5,80.8,71.8,82.0,76.0,71.0,99,86,65,30.21,30.06,6,0,6,0.00
2013-7-18,92.5,81.0,70.9,81.5,75.4,70.3,100,85,58,30.09,29.88,10,0,11,0.00
2013-7-19,91.8,81.4,73.1,79.2,75.3,72.2,98,83,60,29.89,29.63,16,1,16,0.00
2013-7-20,85.4,75.5,66.9,74.9,68.2,64.0,99,80,53,29.85,29.64,15,0,18,0.00
2013-7-21,82.3,71.7,62.1,70.6,63.7,56.6,94,77,56,29.93,29.84,5,0,6,0.00
2013-7-22,79.7,72.3,66.1,70.8,67.2,64.6,97,85,65,29.89,29.69,6,0,6,0.00
2013-7-23,83.0,69.3,59.0,74.5,65.8,53.1,100,89,69,29.81,29.59,14,0,15,0.26
2013-7-24,72.5,62.9,55.8,57.7,53.4,50.0,92,72,52,29.98,29.80,11,0,11,0.00
2013-7-25,76.7,62.9,49.2,60.8,54.8,48.4,99,78,48,30.05,29.98,9,0,9,0.00
2013-7-26,77.3,66.2,54.4,64.4,59.4,53.6,99,81,57,30.04,29.84,12,0,12,0.00
2013-7-27,72.3,65.0,54.3,68.7,63.1,52.3,98,94,83,29.85,29.66,12,0,12,0.54
2013-7-28,64.2,56.7,48.3,59.3,52.8,47.5,99,88,69,29.93,29.76,11,0,11,0.03
2013-7-29,67.3,60.0,53.1,59.6,55.8,51.7,97,86,69,30.12,29.92,10,0,10,0.01
2013-7-30,77.8,64.2,51.9,65.9,58.5,51.4,100,84,53,30.18,30.06,7,0,7,0.00
2013-7-31,75.7,67.0,60.5,68.7,65.1,59.6,99,94,75,30.07,29.81,5,0,9,0.33
2013-8-1,78.5,66.8,58.8,67.3,62.7,56.4,100,88,56,29.85,29.80,10,0,11,0.01
2013-8-2,73.3,63.6,53.3,66.6,60.1,52.2,98,89,68,29.87,29.78,13,0,13,0.00
2013-8-3,77.8,62.0,0.0,64.3,54.4,0.0,100,70,46,29.98,29.83,9,0,9,0.01
2013-8-4,73.2,62.4,52.4,60.8,55.8,51.5,98,81,54,30.09,29.98,10,0,13,0.00
2013-8-5,71.3,62.4,52.4,62.8,57.4,50.9,98,85,59,30.07,29.91,7,0,7,0.00
2013-8-6,78.5,67.6,62.0,70.6,64.3,59.9,98,90,72,29.91,29.83,10,0,12,0.05
2013-8-7,82.8,69.5,61.5,74.8,67.5,61.2,100,94,72,29.86,29.75,7,0,10,0.51
2013-8-8,77.2,68.8,62.8,70.6,65.5,61.5,99,90,68,29.94,29.81,5,0,6,0.01
2013-8-9,80.5,68.4,58.4,66.6,60.8,56.9,96,79,49,29.94,29.87,10,0,10,0.00
2013-8-10,78.0,67.2,60.3,66.1,61.4,58.5,98,83,55,30.07,29.94,5,0,5,0.00
2013-8-11,78.6,66.7,55.1,66.6,60.8,54.3,99,83,58,30.06,29.96,6,0,6,0.00
2013-8-12,71.2,65.5,62.7,70.2,64.4,61.0,100,96,89,29.99,29.78,4,0,4,1.12
2013-8-13,66.1,60.9,51.0,64.3,55.0,47.5,100,82,59,29.99,29.76,12,0,12,0.01
2013-8-14,70.3,57.0,48.2,56.4,50.8,46.0,95,81,53,30.11,29.99,10,0,10,0.00
2013-8-15,73.6,59.4,47.6,59.2,53.0,46.8,99,82,52,30.12,30.03,6,0,6,0.00
2013-8-16,78.0,64.1,52.2,63.7,57.0,51.5,99,80,48,30.14,30.06,5,0,5,0.00
2013-8-17,79.5,65.1,51.0,64.2,57.1,50.2,100,79,40,30.21,30.12,9,0,10,0.00
2013-8-18,83.0,67.1,55.6,68.8,60.1,54.9,100,81,46,30.16,30.05,5,0,5,0.00
2013-8-19,59.5,56.7,55.3,58.1,55.9,54.7,99,97,95,30.06,30.03,0,0,0,0.00
2013-8-20,84.8,77.5,66.7,71.8,68.4,65.4,97,75,56,30.07,30.00,8,0,8,0.00
2013-8-21,84.5,72.2,61.0,73.2,67.1,60.4,100,85,65,30.07,29.92,11,0,11,0.00
2013-8-22,81.2,73.0,66.0,72.5,68.7,65.2,99,87,70,29.97,29.86,6,0,6,0.00
2013-8-23,81.7,69.6,57.0,68.2,58.5,49.5,98,71,36,30.14,29.95,7,0,7,0.00
2013-8-24,81.2,67.1,55.0,67.9,59.5,54.2,100,79,50,30.25,30.13,7,0,7,0.00
2013-8-25,85.7,69.4,54.5,69.6,62.4,53.9,100,81,51,30.24,30.08,9,0,9,0.00
2013-8-26,86.7,74.1,60.9,76.3,68.7,60.0,99,84,65,30.09,29.90,12,0,12,0.00
2013-8-27,81.8,74.8,70.3,78.5,73.2,69.7,100,95,84,29.92,29.75,14,0,14,1.06
2013-8-28,81.5,75.5,67.8,75.8,73.2,67.1,100,93,77,29.92,29.71,7,0,7,1.69
2013-8-29,86.5,72.6,64.1,75.5,69.5,63.8,100,91,64,30.00,29.92,6,0,6,0.11
2013-8-30,86.3,72.8,64.0,74.7,68.7,63.7,99,89,64,29.93,29.66,11,0,11,0.78
2013-8-31,79.8,73.1,67.8,72.6,70.1,66.0,100,91,73,29.77,29.64,5,0,5,0.01
2013-9-1,80.2,71.7,67.3,75.1,68.8,65.4,99,91,80,29.78,29.63,5,0,5,0.00
2013-9-2,76.1,68.7,60.4,70.2,63.2,53.3,99,84,64,29.84,29.64,14,0,14,0.00
2013-9-3,74.6,62.6,57.2,61.0,55.7,52.2,94,79,57,29.96,29.84,11,0,12,0.00
2013-9-4,80.7,66.1,52.2,66.3,59.7,51.6,99,82,56,30.02,29.93,12,0,12,0.00
2013-9-5,71.4,61.8,52.3,62.5,54.1,48.1,96,78,52,30.20,30.00,7,0,7,0.00
2013-9-6,74.5,58.4,44.9,58.7,49.7,42.8,99,77,39,30.22,30.02,7,0,7,0.00
2013-9-7,81.8,65.4,52.7,72.6,62.5,51.9,98,91,64,30.02,29.82,6,0,6,0.02
2013-9-8,73.3,67.1,54.1,67.4,60.8,51.0,97,81,55,30.01,29.85,12,0,12,0.01
2013-9-9,74.8,62.4,51.5,70.7,60.8,50.1,98,94,85,30.00,29.84,4,0,5,0.15
2013-9-10,91.7,76.5,65.2,78.6,71.3,64.6,100,86,52,29.93,29.82,10,0,10,0.00
2013-9-11,90.1,74.6,65.4,78.2,70.3,64.8,100,88,65,29.96,29.82,12,0,12,0.11
2013-9-12,77.2,67.4,54.6,67.6,62.1,50.4,100,85,54,29.89,29.76,14,0,14,0.01
2013-9-13,60.0,53.3,41.7,50.4,46.1,40.1,95,77,56,30.08,29.89,15,0,15,0.00
2013-9-14,69.2,51.4,38.7,50.3,43.4,37.9,99,78,40,30.15,30.04,5,0,7,0.00
2013-9-15,62.9,53.1,44.7,57.7,50.6,43.9,99,92,72,30.07,30.00,5,0,5,0.04
2013-9-16,63.0,54.5,45.5,54.7,50.1,42.4,99,86,58,30.32,30.07,7,0,10,0.00
2013-9-17,67.6,51.3,38.4,53.9,45.7,37.6,100,83,50,30.35,30.17,8,0,8,0.00
2013-9-18,74.0,59.2,45.0,59.9,53.3,43.8,100,83,56,30.18,29.98,7,0,7,0.00
2013-9-19,78.5,64.9,54.5,71.3,62.6,53.9,100,93,74,29.99,29.85,7,0,10,0.00
2013-9-20,80.0,70.5,66.4,74.2,68.8,65.5,100,95,73,29.86,29.66,10,0,11,1.44
2013-9-21,67.7,61.5,54.7,65.8,56.9,46.5,99,86,57,29.81,29.60,14,0,14,0.06
2013-9-22,58.9,52.2,46.2,47.1,44.4,41.8,93,75,61,30.03,29.80,8,0,9,0.05
2013-9-23,62.6,49.8,40.0,49.2,44.1,38.7,99,82,56,30.15,30.02,6,0,6,0.00
2013-9-24,68.0,52.3,41.9,54.5,47.5,41.3,100,86,55,30.11,29.94,5,0,6,0.00
2013-9-25,70.1,55.2,45.5,58.8,50.8,45.0,100,87,56,29.97,29.89,5,0,7,0.00
2013-9-26,75.7,58.0,46.3,60.7,51.1,45.5,100,81,42,30.09,29.94,3,0,4,0.00
2013-9-27,74.5,58.6,45.8,61.9,53.3,45.3,100,85,52,30.18,30.08,5,0,7,0.00
2013-9-28,75.8,60.2,49.2,64.3,55.2,48.7,100,86,53,30.15,29.96,11,0,11,0.00
2013-9-29,62.7,57.6,53.0,62.4,57.2,52.4,100,99,96,29.97,29.90,3,0,4,0.14
2013-9-30,71.5,60.5,52.1,60.5,57.0,51.3,100,90,58,29.95,29.86,9,0,10,0.01
2013-10-1,68.8,57.3,48.6,64.9,56.0,48.1,100,96,84,29.97,29.88,14,0,14,0.00
2013-10-2,78.4,63.1,52.4,63.2,56.2,51.0,100,82,40,30.02,29.89,6,0,6,0.00
2013-10-3,76.3,63.1,52.2,69.9,60.7,51.3,99,92,77,30.00,29.87,14,0,15,0.00
2013-10-4,78.7,67.7,60.9,71.6,65.5,60.3,100,93,73,29.95,29.88,5,0,7,0.09
2013-10-5,72.3,66.6,62.1,70.2,65.8,61.8,100,97,90,29.97,29.80,7,0,7,0.64
2013-10-6,69.8,64.7,54.3,68.0,63.9,53.7,100,97,87,29.80,29.54,14,0,14,0.24
2013-10-7,58.2,50.6,43.0,54.0,47.7,41.4,99,90,74,30.07,29.62,13,0,15,0.01
2013-10-8,67.2,51.4,40.7,54.1,45.0,40.2,100,82,46,30.24,30.07,7,0,7,0.00
2013-10-9,69.4,52.9,41.5,59.0,47.2,41.0,100,84,47,30.27,30.17,9,0,9,0.00
2013-10-10,71.1,54.0,43.8,58.1,47.6,43.1,100,82,42,30.18,30.07,11,0,12,0.00
2013-10-11,73.2,53.6,41.1,56.6,47.6,40.4,100,83,47,30.10,30.02,5,0,5,0.01
2013-10-12,75.8,58.7,47.4,63.8,54.2,46.9,100,87,45,30.06,29.98,7,0,7,0.00
2013-10-13,67.6,57.6,45.0,58.3,48.9,42.2,99,76,41,30.28,30.03,10,0,10,0.00
2013-10-14,63.7,50.7,42.9,48.6,44.5,42.1,99,82,51,30.35,30.22,5,0,6,0.00
2013-10-15,62.9,52.5,41.5,60.8,51.1,40.7,100,95,85,30.23,29.78,8,0,10,0.06
2013-10-16,61.5,55.9,51.2,60.9,51.8,46.1,100,87,65,29.85,29.74,12,0,13,0.01
2013-10-17,51.2,48.5,43.1,49.4,47.0,41.8,98,94,88,29.84,29.70,10,0,10,0.17
2013-10-18,62.7,49.1,38.3,49.2,44.1,37.5,99,85,52,29.87,29.79,12,0,15,0.01
2013-10-19,46.2,41.6,37.5,45.1,40.4,36.5,98,96,89,29.86,29.70,11,0,15,0.20
2013-10-20,59.0,45.7,35.0,47.2,41.4,34.5,99,86,56,29.87,29.79,15,0,15,0.02
2013-10-21,53.4,48.8,36.1,49.0,44.2,33.7,95,84,73,29.81,29.74,12,0,15,0.03
2013-10-22,49.4,39.6,28.6,37.4,32.9,27.0,95,78,56,29.87,29.78,13,0,13,0.00
2013-10-23,48.1,38.0,29.9,38.6,31.9,28.2,98,80,48,29.89,29.76,10,0,10,0.00
2013-10-24,46.5,36.5,29.6,35.7,31.3,28.1,96,83,52,30.14,29.88,10,0,13,0.02
2013-10-25,47.9,36.7,29.6,37.5,31.6,28.3,97,83,58,30.29,30.08,15,0,19,0.00
2013-10-26,49.6,41.4,34.4,39.0,33.4,29.5,97,74,60,30.08,29.74,18,1,18,0.08
2013-10-27,53.0,38.5,30.2,38.9,33.8,29.5,98,85,53,30.03,29.93,10,0,10,0.01
2013-10-28,50.4,39.2,29.4,41.9,34.8,28.1,98,85,70,30.35,29.99,9,0,10,0.00
2013-10-29,50.1,41.9,32.1,39.3,35.1,29.8,94,77,62,30.39,30.20,6,0,6,0.00
2013-10-30,62.9,46.3,32.6,50.7,40.8,31.6,99,83,54,30.20,29.90,5,0,6,0.12
2013-10-31,61.1,49.9,0.0,60.9,48.0,0.0,100,82,96,29.92,29.10,18,1,20,1.42
2013-11-1,56.6,43.6,0.0,55.8,40.0,0.0,98,78,78,29.61,29.05,23,2,33,0.07
2013-11-2,47.2,43.3,35.0,44.2,41.4,32.9,98,93,82,30.05,29.59,9,0,11,0.18
2013-11-3,44.0,35.4,29.5,37.5,32.2,28.6,99,89,68,30.41,30.04,7,0,7,0.00
2013-11-4,48.1,38.2,29.3,36.6,32.3,27.8,98,81,46,30.44,30.27,11,0,11,0.00
2013-11-5,53.2,45.1,34.6,48.7,42.6,33.0,97,91,78,30.32,30.12,6,0,6,0.00
2013-11-6,54.7,51.0,42.7,52.9,47.6,38.8,96,88,72,30.12,29.74,19,1,23,0.18
2013-11-7,45.7,39.3,33.1,39.2,32.7,26.9,95,78,54,30.09,29.92,13,1,19,0.06
2013-11-8,45.4,34.3,28.3,33.7,29.3,26.3,97,84,50,30.25,30.07,12,0,12,0.00
2013-11-9,57.2,45.5,32.1,43.6,37.4,30.4,95,74,58,30.16,29.75,18,1,23,0.02
2013-11-10,48.2,40.5,30.2,41.9,32.7,27.7,94,74,58,30.22,29.85,19,1,24,0.01
2013-11-11,42.4,35.3,27.2,39.7,32.1,21.8,95,88,79,30.26,29.98,12,0,13,0.17
2013-11-12,36.1,27.7,21.3,25.2,20.3,17.1,92,74,53,30.51,30.26,14,1,15,0.02
2013-11-13,41.5,28.3,17.4,26.8,19.2,15.2,94,72,37,30.51,30.13,19,2,19,0.00
2013-11-14,49.9,36.9,25.6,30.2,24.6,19.4,79,62,44,30.15,29.95,18,2,18,0.00
2013-11-15,50.2,40.5,32.8,33.3,29.5,25.1,89,66,50,30.03,29.96,12,0,12,0.00
2013-11-16,55.8,43.1,28.4,52.9,40.2,26.9,97,90,81,30.06,29.76,12,0,16,0.00
2013-11-17,62.7,56.7,46.9,60.2,54.5,41.7,98,92,74,29.76,29.17,30,3,32,0.97
2013-11-18,46.9,46.4,46.1,41.9,40.5,38.8,83,80,75,29.50,29.40,26,5,26,0.00
2013-11-19,41.7,32.9,24.3,26.2,23.9,22.2,93,71,49,30.37,30.25,6,0,7,0.00
2013-11-20,45.5,31.9,22.4,34.5,26.5,20.9,97,82,45,30.41,30.20,11,0,12,0.00
2013-11-21,46.7,41.8,34.7,43.3,39.0,31.8,98,90,77,30.25,30.13,7,0,13,0.36
2013-11-22,45.0,39.1,25.9,44.7,37.3,23.6,99,94,79,30.31,30.08,14,0,19,0.04
2013-11-23,29.1,23.1,16.5,23.9,17.4,8.1,95,79,52,30.49,30.22,18,1,19,0.00
2013-11-24,26.0,17.5,11.9,14.9,11.0,8.2,92,76,54,30.57,30.40,16,1,16,0.00
2013-11-25,30.4,24.2,16.6,25.3,17.5,11.6,89,76,59,30.40,30.06,17,2,18,0.00
2013-11-26,33.9,30.7,28.0,28.6,27.0,25.0,90,86,79,30.08,29.89,11,0,11,0.00
2013-11-27,29.0,23.6,17.5,25.1,15.8,10.9,88,72,58,30.16,29.86,19,1,19,0.00
2013-11-28,27.7,21.3,15.5,21.5,16.3,11.7,92,81,65,30.40,30.16,12,0,12,0.00
2013-11-29,34.4,21.8,12.3,24.1,17.1,10.3,96,83,53,30.63,30.39,5,0,5,0.01
2013-11-30,44.9,30.6,21.2,30.6,25.0,19.1,94,81,57,30.53,30.06,11,0,11,0.01
2013-12-1,44.8,33.6,24.1,36.6,30.0,22.4,95,87,71,30.06,29.94,10,0,11,0.00
2013-12-2,38.5,31.6,22.7,31.5,26.6,20.2,94,83,56,29.96,29.85,6,0,6,0.00
2013-12-3,36.9,32.8,22.4,35.9,31.2,20.1,100,94,87,29.87,29.80,5,0,5,0.09
2013-12-4,52.7,44.1,34.4,51.7,42.9,33.6,99,95,89,29.86,29.58,7,0,7,0.02
2013-12-5,57.1,42.6,29.8,55.0,36.6,22.5,97,79,66,30.10,29.56,22,2,22,0.01
2013-12-6,29.8,26.1,19.3,23.4,18.7,13.6,79,73,68,30.36,30.06,9,0,13,0.00
2013-12-7,26.1,18.9,12.1,13.7,11.1,8.6,87,72,55,30.59,30.36,13,0,15,0.00
2013-12-8,28.5,18.8,10.1,27.2,15.0,7.4,100,85,70,30.57,29.96,11,1,11,0.00
2013-12-9,28.8,25.6,18.8,27.8,21.9,13.6,96,86,75,30.07,29.84,19,2,20,0.00
2013-12-10,21.6,17.0,8.5,15.8,9.9,3.6,89,74,54,30.16,29.93,21,2,21,0.01
2013-12-11,24.4,16.6,4.1,18.4,11.3,-0.3,87,79,69,30.43,30.15,12,1,14,0.00
2013-12-12,19.1,11.5,-0.6,13.9,5.4,-3.8,92,77,55,30.43,30.16,16,1,16,0.00
2013-12-13,27.9,23.4,18.8,20.9,18.2,13.7,84,80,74,30.25,30.12,11,0,11,0.00
2013-12-14,21.0,18.8,17.1,19.0,16.2,12.6,93,90,74,30.24,29.78,15,2,15,0.00
2013-12-15,24.5,19.2,14.3,22.7,16.1,7.8,93,88,74,30.00,29.77,14,1,15,0.00
2013-12-16,23.2,11.5,-1.0,13.7,7.2,-3.9,92,83,62,30.16,29.98,6,0,10,0.02
2013-12-17,25.6,20.2,11.4,22.7,17.7,9.3,94,90,85,29.99,29.86,14,1,14,0.00
2013-12-18,31.0,24.0,18.5,25.2,20.0,14.8,100,85,70,30.09,29.88,15,1,15,0.00
2013-12-19,40.2,30.3,20.6,34.1,26.4,15.5,95,86,75,29.96,29.83,7,0,12,0.12
2013-12-20,36.8,33.9,32.7,36.3,33.3,31.9,99,98,95,29.87,29.67,4,0,4,0.45
2013-12-21,53.4,25.7,0.0,38.5,24.7,0.0,100,80,57,29.82,29.60,10,0,11,0.72
2013-12-22,36.9,33.8,32.1,36.0,32.7,31.3,98,96,90,29.92,29.49,17,1,17,0.25
2013-12-23,33.2,28.4,19.9,31.7,24.0,14.0,95,84,70,30.27,29.92,13,0,13,0.00
2013-12-24,20.9,14.3,6.2,14.0,8.3,3.6,90,78,59,30.52,30.26,14,1,14,0.00
2013-12-25,24.1,18.0,6.0,22.3,15.1,3.5,93,88,80,30.48,30.09,14,0,14,0.00
2013-12-26,29.2,25.2,23.2,24.9,21.2,17.3,95,85,70,30.26,30.00,17,0,17,0.05
2013-12-27,39.2,31.6,24.0,32.7,28.0,21.0,94,87,75,30.28,30.04,12,0,13,0.05
2013-12-28,46.9,36.5,25.4,37.4,31.8,23.9,97,84,67,30.08,29.85,14,1,14,0.00
2013-12-29,43.7,32.4,21.6,34.1,28.5,17.5,95,86,67,29.95,29.64,13,1,14,0.00
2013-12-30,21.6,18.3,13.2,17.8,10.6,5.3,86,72,61,30.24,29.95,14,0,14,0.00
2013-12-31,19.9,16.6,14.2,15.8,11.3,8.3,89,80,68,30.30,30.03,17,1,17,0.00
2014-1-1,15.3,13.1,11.4,12.4,9.8,7.3,90,87,81,30.36,30.20,6,0,9,0.00
2014-1-2,14.8,11.3,1.6,12.0,7.5,-4.3,92,84,75,30.26,30.05,13,2,15,0.00